Flag for Netherlands Weather past 2 weeks in Tilburg, Netherlands

Now
52 °F

Overcast.


Feels Like: 50 °F
Forecast: 46 / 58 °F
Wind: 6 mph from Southwest

Location: Gilze-Rijen

Current Time: Oct 25, 2014 at 8:13:59 PM

Latest Report: Oct 25, 2014 at 7:25 PM


Visibility: N/A

Pressure: 30.12 "Hg

Humidity: 88%

Dew point: 48 °F

Location of TilburgLocation

Historic Weather in Tilburg — Graph

°F

Tilburg temperature yesterday

Maximum temperature yesterday: 55 °F (at 1:55 PM)
Minimum temperature yesterday: 52 °F (at 5:25 AM)
Average temperature yesterday: 53 °F

Past Weeks' High & Low Weather Summary

 TemperatureHumidityPressure
High73 °F (Oct 18, 2:25 PM)100% (Oct 11, 12:25 AM)30.18 "Hg (Oct 11, 12:25 AM)
Low41 °F (Oct 12, 7:25 AM)64% (Oct 13, 3:55 PM)29.47 "Hg (Oct 21, 2:25 PM)
Average56 °F87%29.88 "Hg
* Reported Oct 10 6:25 PM — Oct 25 6:55 PM, Tilburg, Weather by CustomWeather, © 2014

Note: Actual official high and low records may vary slightly from our data, if they occured in-between our weather recording intervals... More about our weather records

Advertising

Tilburg weather history for previous 24 hours

 ConditionsComfort  
Time TempWeatherWind HumidityBarometerVisibility
6:55 PM
Oct 25
54 °FOvercast.3 mph82%30.12 "HgN/A
6:25 PM55 °FPartly sunny.3 mph72%30.12 "HgN/A
5:55 PM55 °FOvercast.6 mph72%30.12 "HgN/A
5:25 PM55 °FOvercast.5 mph72%30.09 "HgN/A
4:55 PM57 °FPartly sunny.8 mph67%30.09 "HgN/A
4:25 PM59 °FPartly sunny.10 mph72%30.09 "HgN/A
3:55 PM59 °FCloudy.8 mph77%30.09 "HgN/A
3:25 PM59 °FMore clouds than sun.6 mph88%30.07 "HgN/A
2:55 PM59 °FFog.6 mph88%30.07 "Hg4 mi
2:25 PM59 °FFog.7 mph88%30.07 "Hg3 mi
1:59 PM57 °FFog.6 mph94%30.07 "Hg2 mi
1:25 PM57 °FFog.6 mph94%30.07 "Hg2 mi
12:55 PM55 °FFog.7 mph100%30.07 "Hg1 mi
12:25 PM55 °FFog.6 mph100%30.07 "Hg1 mi
11:55 AM55 °FFog.5 mph100%30.07 "Hg1 mi
11:25 AM55 °FFog.6 mph100%30.07 "Hg1 mi
10:55 AM55 °FFog.7 mph100%30.07 "Hg1 mi
10:25 AM55 °FFog.5 mph100%30.04 "Hg1 mi
9:55 AM55 °FFog.5 mph100%30.04 "Hg1 mi
9:25 AM55 °FFog.5 mph100%30.04 "Hg1 mi
9:03 AM55 °FFog.6 mph94%30.04 "Hg1 mi
8:55 AM55 °FFog.6 mph94%30.04 "Hg1 mi
8:25 AM55 °FFog.7 mph94%30.01 "Hg2 mi
7:55 AM55 °FFog.6 mph94%30.01 "Hg2 mi
7:25 AM55 °FFog.6 mph94%30.01 "Hg2 mi
6:55 AM54 °FFog.8 mph100%30.01 "Hg2 mi
6:25 AM54 °FFog.7 mph100%30.01 "Hg2 mi
5:55 AM54 °FFog.7 mph100%30.01 "Hg1 mi
5:25 AM54 °FFog.7 mph100%30.01 "Hg2 mi
4:55 AM54 °FFog.8 mph100%29.98 "Hg2 mi
4:25 AM54 °FFog.7 mph100%29.98 "Hg2 mi
3:55 AM54 °FFog.7 mph100%29.98 "Hg3 mi
3:25 AM54 °FFog.8 mph100%29.98 "Hg3 mi
2:55 AM54 °FFog.9 mph100%29.98 "Hg4 mi
2:25 AM54 °FFog.9 mph94%30.01 "Hg3 mi
1:55 AM54 °FFog.9 mph94%30.01 "Hg3 mi
1:25 AM52 °FFog.10 mph100%30.01 "Hg4 mi
12:55 AM52 °FFog.10 mph100%30.01 "Hg4 mi
12:25 AM52 °FFog.10 mph100%30.01 "Hg5 mi
11:55 PM
Oct 24
52 °FFog.12 mph100%30.01 "Hg5 mi
11:25 PM52 °FRain. Partly cloudy.13 mph100%30.01 "Hg3 mi
11:01 PM52 °FRain. Mostly cloudy.10 mph100%30.01 "Hg3 mi
10:25 PM52 °FLight rain. Mostly cloudy.9 mph94%30.01 "Hg6 mi
9:55 PM54 °FDrizzle. Low clouds.12 mph94%30.01 "HgN/A
9:25 PM54 °FMostly cloudy.13 mph88%30.01 "HgN/A
8:55 PM54 °FMostly cloudy.13 mph94%30.01 "HgN/A
8:25 PM54 °FOvercast.13 mph94%30.01 "HgN/A
Weather by CustomWeather, © 2014

See weather overviewHow to use our weather pages